Location: Acton
(51.4942°N, 0.2232°W)
Time: 01:36:19
(UTC+00:00)

CRYOSAT 2 - Pass Details

Date: 18 September 2020
Orbit: 713 x 725 km, 92.0° (Epoch: 30 October)

Event Time Altitude Azimuth Distance (km) Brightness Sun altitude
Rises 20:49:29 0° 4° (N) 3,156 8.1 -24.2°
Reaches altitude 10° 20:51:47 10° 5° (N) 2,229 7.3 -24.5°
Maximum altitude 20:56:44 86° 94° (E) 733 4.2 -25.1°
Enters shadow 20:56:55 82° 151° (SSE) 737 4.2 -25.1°
